Other Public Products
Issued by NWS Grand Forks, ND

Home | Current Version | Previous Version | Graphics & Text | Print | Product List | Glossary On
Versions: 1 2 3 4 5 6 7 8 9 10 11 12 13 14 15 16 17 18 19 20 21 22 23 24 25 26 27 28 29 30 31 32 33 34 35 36 37 38 39 40 41 42 43 44 45 46 47 48 49 50
000
FPUS83 KFGF 282231
OPUFGF
PRAIRIE TO PINES WEATHER ROUNDUP
NATIONAL WEATHER SERVICE EASTERN NORTH DAKOTA/GRAND FORKS ND
500 PM CDT SAT MAR 28 2015

 **SATELLITE DATA USED TO AUGMENT SKY COVER AT AUTOMATED STATIONS**
 *****  WEATHER ACROSS EASTERN NORTH DAKOTA  *****

CITY           SKY/WX    TMP DP  RH WIND       PRES   REMARKS
GRAND FORKS    CLOUDY    49  31  49 S23G38    29.77F
GRAND FORKS AF CLOUDY    47  32  55 S24G37    29.75F
GRAND CITY NWS   N/A     46 N/A N/A S28         N/A
BUXTON           N/A     49  30  48 SE21G37     N/A
DEVILS LAKE    PTSUNNY   48  39  71 S25       29.63F
FARGO          SUNNY     53  28  38 S28G37    29.84F
WAHPETON ARPT  CLEAR     50  27  40 S24G31    29.88F
$$

 *****  WEATHER ACROSS CENTRAL AND WESTERN NORTH DAKOTA  *****

CITY           SKY/WX    TMP DP  RH WIND       PRES   REMARKS
JAMESTOWN      MOSUNNY   53  35  50 S30G38    29.71F
BISMARCK       SUNNY     66  35  31 S20G28    29.61F
MINOT          CLOUDY    63  39  41 S18G28    29.48F
MINOT AFB      CLOUDY    62  46  55 S21       29.45F
GARRISON         N/A     62  39  42 S16       29.51F
WILLISTON      CLOUDY    77  36  22 SW17G24   29.40F
DICKINSON      PTSUNNY   78  33  19 S25       29.48F
HETTINGER      MOSUNNY   78  31  17 S21G28    29.57F
$$

 *****  OTHER OBSERVATIONS NORTHEAST NORTH DAKOTA  *****

CITY           SKY/WX    TMP DP  RH WIND       PRES   REMARKS
WALHALLA         N/A     46  39  76 S18G28    29.65F
LANGDON        NOT AVBL
CAVALIER       FAIR      45  36  70 S24G32    29.67F
GRAFTON        NOT AVBL
CANDO          FAIR      46  39  76 S21G29    29.61F
FORT TOTTEN    NOT AVBL
ROLLA          FAIR      48  41  76 S23G33    29.56F
RUGBY            N/A     57  39  51 S17G25    29.54F
 ***** THE ABOVE OBSERVATIONS ARE NON NWS ARE NOT QUALITY
        CONTROLLED AND MAY MIS-REPORT RAIN FOR SNOW...
$$

 *****  OTHER OBSERVATIONS SOUTHEAST NORTH DAKOTA *****

CITY           SKY/WX    TMP DP  RH WIND       PRES   REMARKS
COOPERSTOWN    NOT AVBL
VALLEY CITY    FAIR      54  34  47 S26G36    29.74F
OAKES            N/A     54  36  50 S26       29.76F
GWINNER        CLEAR     54  32  43 S23G30      N/A
SHEYENNE NWR     N/A     53  32  44 S18       29.95S
BUFFALO        NOT AVBL
WYNDMERE         N/A     52  34  50 S17         N/A
 ***** THE ABOVE OBSERVATIONS ARE NON NWS ARE NOT QUALITY
       CONTROLLED AND MAY MIS-REPORT RAIN FOR SNOW...
$$

  *****  WEATHER ACROSS NORTHERN MINNESOTA  *****

CITY           SKY/WX    TMP DP  RH WIND       PRES   REMARKS
FLAG ISLAND    PTSUNNY   36  28  75 S15       29.79F
WARROAD        MOSUNNY   45  30  57 S14G21    29.81F
ROSEAU         PTSUNNY   45  30  57 S22G29    29.79F
HALLOCK        CLOUDY    48  30  49 S28G40    29.72F
THF RVR FALLS  PTSUNNY   45  28  53 S24G31    29.81F
HALSTAD          N/A     50  25  37 S28         N/A
FOSSTON        MOSUNNY   43  25  49 S26G33    29.85F
BAUDETTE       PTSUNNY   43  22  43 S18       29.84F
WASKISH        PTSUNNY   46  23  39 S10G21    29.86F
CROOKSTON      CLOUDY    48  28  46 S31       29.81F
$$
  *****  WEATHER ACROSS CENTRAL AND WEST MINNESOTA  *****

CITY           SKY/WX    TMP DP  RH WIND       PRES   REMARKS
BEMIDJI        MOSUNNY   43  23  45 S16G24    29.89F
PARK RAPIDS    SUNNY     47  23  38 S23G30    29.93F
WADENA         MOSUNNY   41  27  56 S20G25    29.95F
DETROIT LAKES  SUNNY     43  28  56 S22       29.89F
MOORHEAD       SUNNY     52  27  37 S23G35    29.85F
FERGUS FALLS   SUNNY     46  25  42 S25G35    29.93F
ELBOW LAKE     FAIR      45  30  55 S26G32    29.92F
MORRIS MN      SUNNY     46  34  61 S20G28    29.94S
STAPLES        MOSUNNY   39  25  56 S17G29    29.98F
WHEATON        SUNNY     48  30  49 S21G29    29.91F
$$
  *****  WEATHER ELSEWHERE ACROSS MINNESOTA  *****

CITY           SKY/WX    TMP DP  RH WIND       PRES   REMARKS
DULUTH         SUNNY     43   7  22 SW14      30.01F
INTRNTL FALLS  MOSUNNY   45  13  27 SW17G25   29.89F
ELY            SUNNY     43   5  21 SW10G18   29.96F
CLOQUET        SUNNY     43   9  24 S17G23    30.01F
BRAINERD       SUNNY     43  18  36 S22       30.00F
HIBBING        SUNNY     43  12  28 SW15G23   29.97F
ALEXANDRIA     PTSUNNY   41  27  57 S22G31    29.98F
SAINT CLOUD    SUNNY     43  21  41 S21       30.05F
MINNEAPOLIS    SUNNY     40  21  46 S16G22    30.12F
$$

  *****  WEATHER ACROSS SOUTH DAKOTA  *****

CITY           SKY/WX    TMP DP  RH WIND       PRES   REMARKS
SIOUX FALLS    SUNNY     53  26  35 S22G30    29.96F
BROOKINGS      NOT AVBL
WATERTOWN      SUNNY     52  28  39 S23G32    29.88F
HURON          SUNNY     56  30  37 S22G32    29.85F
SISSETON         N/A     53  32  44 S22G32    29.87F
ABERDEEN       SUNNY     57  31  37 S20G35    29.81F
MITCHELL       SUNNY     57  31  37 S21G30    29.89F
PIERRE         SUNNY     73  36  25 S26       29.69F
MOBRIDGE       SUNNY     67  36  31 S26       29.66F
RAPID CITY     SUNNY     82  26  13 W17       29.62F
$$

  *****  SOME WEATHER IN NEARBY STATES *****

CITY           SKY/WX    TMP DP  RH WIND       PRES   REMARKS
GLASGOW MT     LGT RAIN  52  40  63 W33G47    29.63R
GREAT FALLS MT PTSUNNY   53  23  31 W36G51    29.85R
CHEYENNE WY    SUNNY     73  19  13 W26G33    29.96F
SCOTTSBLUFF NE SUNNY     82  27  13 W18G29    29.78F
OMAHA NE       SUNNY     54  29  38 S15G23    30.06F
DES MOINES IA  MOSUNNY   50  16  25 S13       30.14F
DAVENPORT IA   SUNNY     41  11  29 SE15      30.26F
CHICAGO IL     SUNNY     35   7  31 E7        30.29F
EAU CLAIRE WI  SUNNY     41   8  25 SW12      30.15F
LA CROSSE WI   SUNNY     42  10  27 S16       30.21F
$$

  *****  SOME NATIONAL WEATHER *****

CITY           SKY/WX    TMP DP  RH WIND       PRES   REMARKS
LA GUARDIA NY  PTSUNNY   36  24  62 N14       29.90R
RALEIGH NC     MOSUNNY   46  11  24 VRB7G21   30.07R
ATLANTA GA     MOSUNNY   52  15  23 NW15G21   30.13S
NEW ORLEANS LA MOSUNNY   69  44  40 SE7       30.15F
OKLAHOMA CITY  MOSUNNY   77  44  30 E7        29.96F
ALBUQUERQUE NM SUNNY     79  19  10 W8        30.10F
SALT LAKE CITY PTSUNNY   72  26  18 N16       30.10S
LOS ANGELES CA MOSUNNY   69  59  70 W10       30.03F
BOISE ID       SUNNY     60  25  26 NW15G31   30.28S
SEATTLE WA     PTSUNNY   58  43  57 SW14G23   30.34S
$$

*** WEATHER ACROSS MANITOBA...SASKATCHEWAN AND ONTARIO ***
                ***ONTARIO***

CITY           SKY/WX    TMP DP  RH WIND       PRES   REMARKS
GERALDTON      PTSUNNY   36   7  30 S15G26    29.95F
THUNDER BAY    MOSUNNY   39  18  41 S13G22    30.02F
SIOUX LOOKOUT  CLOUDY    39  12  33 SW12G22   29.86F
TORONTO        SUNNY     28   1  31 N16G22    30.17R WCI  17
BIG TROUT LK   PTSUNNY   37  23  56 SW13G21   29.63F
PICKLE LAKE    CLOUDY    37  10  32 SW16G24   29.78F
DRYDEN         MOSUNNY   39  12  33 S18       29.83F
KENORA         CLOUDY    39  21  48 S15G23    29.80F
$$
                *** MANITOBA***

CITY           SKY/WX    TMP DP  RH WIND       PRES   REMARKS
BRANDON        PTSUNNY   46  39  76 S10       29.53F
DAUPHIN        SUNNY     45  36  70 SW16      29.45S
ISLAND LAKE    LGT SNOW  34  30  86 S12G22    29.55F
PILOT MOUND      N/A     45  39  81 S31G38      N/A
THE PAS        CLOUDY    41  30  65 N3        29.43S
THOMPSON       LGT SNOW  32  30  93 SW6       29.47S VSB 3/4
WINNIPEG       CLOUDY    45  32  61 S29G41    29.66F
LYNN LAKE      MOSUNNY   39  34  81 NW9       29.44S
CHURCHILL      CLOUDY    36  28  75 W10       29.38R
GILLAM         LGT SNOW  32  30  93 SW10      29.47F WCI  24
$$
                ***SASKATCHEWAN***

CITY           SKY/WX    TMP DP  RH WIND       PRES   REMARKS
ESTEVAN        CLOUDY    68  45  42 W7        29.43
KINDERSLEY     LGT RAIN  41  39  93 N21G29    29.64R
LLOYDMINSTER   PTSUNNY   48  37  66 NW14      29.66R
PRINCE ALBERT  CLOUDY    41  36  81 N15       29.54R
REGINA         LGT RAIN  50  46  87 NW16      29.47R


USA.gov is the U.S. government's official web portal to all federal, state and local government web resources and services.